Regional Weather Roundup
Issued by NWS

Home | Current Version | Previous Version | Graphics & Text | Print | Product List | Glossary On
Versions: 1 2 3 4 5 6 7 8 9 10 11 12 13 14 15 16 17 18 19 20 21 22 23 24 25 26 27 28 29 30 31 32 33 34 35 36 37 38 39 40 41 42 43 44 45 46 47 48 49 50
440
ASUS43 KBIS 241510
RWRND

NORTH DAKOTA REGIONAL WEATHER ROUNDUP
NATIONAL WEATHER SERVICE BISMARCK ND
900 AM CST TUE JAN 24 2017

NOTE: "FAIR" INDICATES FEW OR NO CLOUDS BELOW 12,000 FEET WITH NO
SIGNIFICANT WEATHER AND/OR OBSTRUCTIONS TO VISIBILITY.


NDZ001>003-009>011-017-241600-
NORTHWEST NORTH DAKOTA

CITY           SKY/WX    TMP DP  RH WIND       PRES   REMARKS
WILLISTON      CLOUDY    20  14  77 NW6       29.89R WCI  12
MINOT          CLOUDY    23  16  74 W15       29.85S WCI  10
$$

NDZ018>021-031>035-040>046-241600-
SOUTHWEST NORTH DAKOTA

CITY           SKY/WX    TMP DP  RH WIND       PRES   REMARKS
BISMARCK       CLOUDY    25  19  78 N7        29.88R WCI  17
DICKINSON      CLOUDY    20  16  84 NW13      29.82R WCI   7
GARRISON         N/A     21  17  84 NW8       29.85S WCI  11
HETTINGER ARPT CLOUDY    20  18  92 N8        29.83F WCI  10
$$

NDZ004>008-012>016-024-026-027-054-241600-
NORTHEAST NORTH DAKOTA

CITY           SKY/WX    TMP DP  RH WIND       PRES   REMARKS
GRAND FORKS    CLOUDY    26  20  77 SW7       29.87S WCI  18
GRND FRKS AFB  CLOUDY    25  20  80 W6        29.87S WCI  18
DEVILS LAKE    MOCLDY    21  18  88 W12       29.85R WCI   9
$$

NDZ022-023-025-028>030-036>039-047>053-241600-
SOUTHEAST NORTH DAKOTA

CITY           SKY/WX    TMP DP  RH WIND       PRES   REMARKS
FARGO          CLOUDY    28  23  81 NW8       29.90R WCI  20
JAMESTOWN      CLOUDY    22  19  89 NW5       29.86R WCI  16
$$





USA.gov is the U.S. government's official web portal to all federal, state and local government web resources and services.